Find Starlink 31078

NORAD ID: 58638 Int'l Des: 2023-203 Owner: SPXS Country: US Constellation: starlink operational
LEOCIRCULAR

Current View

Loading 3D Globe...

About Starlink 31078

Starlink 31078 (NORAD 58638) is a starlink constellation satellite (v2 mini) launched Dec 23, 2023 by SPXS of US. It operates in LEO, CIRCULAR orbit with a mass of 730.00 kg.

Upcoming Passes

Passes for default location (London). Set your location on the main map for personalized predictions.

Altitude History

Loading altitude history...

Two-Line Element Set

1 58638U 23203W 26234.99694609 .00004984 00000-0 19053-3 0 9995
2 58638 43.0022 208.0801 0001588 267.3945 92.6725 15.27581270148990
Epoch: Aug 22, 2026 • Age: 35 hours

Current Status

Altitude 487.1 km
Apogee / Perigee N/A
Velocity 7.63 km/s
Sub-Earth Point 42.35°N, 167.42°E
Launch Date Dec 23, 2023
Age 2.6 years
Type internet

Technical Details

Classification Payload
Mass 730.00 kg
Dry Mass 700.00 kg
Total Mass 730.00 kg
Length 0.30 m
Diameter 4.10 m
Span 29.00 m
Shape Box + pan
Manufacturer SPXS
Bus Type Starlink V2M
Phase Status In Orbit
Owner/State SPXS/US

Most Searched